Hourly Data Report for October 13, 2017

All times are specified in Local Standard Time (LST). Add 1 hour to adjust for Daylight Saving Time where and when it is observed.

FREDERICTON
NEW BRUNSWICK

45°52'08.000" N
66°32'14.000" W
20.70 m
8101505
71700
YFC

Download Data

Hourly Data (October 2017)
Hourly Data Report for October 13, 2017
Temp Definition
°C
Dew Point Temp Definition
°C
Rel Hum Definition
%
Wind Dir Definition
10's deg

Wind Spd Definition
km/h
Visibility Definition
km
Stn Press Definition
kPa
Hmdx Definition


Wind Chill Definition


Weather Definition


TIME
00:00 Legend Double Dagger 3.2 0.9 85 33 8 16.1 103.03     LegendNANA
01:00 Legend Double Dagger 0.0 -0.4 97 24 4 16.1 103.10   -1 LegendNANA
02:00 Legend Double Dagger -1.0 -1.1 99   0 16.1 103.11     LegendNANA
03:00 Legend Double Dagger -1.6 -1.9 98 21 8 16.1 103.11   -5 LegendNANA
04:00 Legend Double Dagger -1.6 -1.7 99 24 4 16.1 103.13   -3 LegendNANA
05:00 Legend Double Dagger -2.6 -2.7 99   0 16.1 103.16     LegendNANA
06:00 Legend Double Dagger -3.0 -3.1 99 20 8 16.1 103.20   -6 LegendNANA
07:00 Legend Double Dagger -2.7 -2.8 99 23 4 16.1 103.25   -4 LegendNANA
08:00 Legend Double Dagger -0.4 -0.8 97 LegendMM 4 16.1 103.30   -2 LegendNANA
09:00 Legend Double Dagger 3.5 1.5 87   0 16.1 103.28     LegendNANA
10:00 Legend Double Dagger 6.5 2.1 74   0 16.1 103.27     LegendNANA
11:00 Legend Double Dagger 9.7 2.3 60 19 11 16.1 103.23     LegendNANA
12:00 Legend Double Dagger 12.6 3.4 53 22 9 16.1 103.13     LegendNANA
13:00 Legend Double Dagger 14.7 2.9 45 20 18 16.1 103.02     LegendNANA
14:00 Legend Double Dagger 16.3 0.9 35 18 13 16.1 102.91     LegendNANA
15:00 Legend Double Dagger 16.4 1.5 36 18 17 16.1 102.84     LegendNANA
16:00 Legend Double Dagger 15.9 2.2 39 17 21 16.1 102.77     LegendNANA
17:00 Legend Double Dagger 14.3 2.2 44 18 18 16.1 102.73     LegendNANA
18:00 Legend Double Dagger 11.5 3.4 57 18 15 16.1 102.73     LegendNANA
19:00 Legend Double Dagger 9.4 2.8 63 18 17 16.1 102.75     LegendNANA
20:00 Legend Double Dagger 8.0 3.7 74 18 17 16.1 102.67     LegendNANA
21:00 Legend Double Dagger 6.3 3.9 85 20 11 16.1 102.66     LegendNANA
22:00 Legend Double Dagger 5.5 4.2 91 18 9 16.1 102.63     LegendNANA
23:00 Legend Double Dagger 4.1 3.5 96 18 8 16.1 102.58     LegendNANA

Notes on Data Quality.

Legend

  • E = Estimated
  • M = Missing
  • NA = Not Available
  • ‡ = Partner data that is not subject to review by the National Climate Archives
Date modified: